Simultaneous Nadir Overpasses (SNOs) Predictions

Prediction of SNOs between FY3D and NOAA-19 Satellite Orbit:

Table of predicted SNOs for the next 14.0 days since TLE Epoch: 2/19/2023
Index Date (FY3D) Time (FY3D) Lat,Lon (FY3D) SZA (FY3D ) Date (NOAA-19) Time (NOAA-19) Lat,Lon (NOAA-19) SZA (NOAA-19 ) Distance(km) Time Diff (sec)
1 03/04/2023 10:02:26 -76.52,-160.64 96.76 03/04/2023 10:01:17 -76.50,-162.96 96.63 60.41 69
2 03/04/2023 10:53:19 76.81, 5.51 83.58 03/04/2023 10:52:14 76.80, 5.52 83.58 1.41 65
3 03/04/2023 11:44:04 -76.80, 172.87 96.45 03/04/2023 11:43:09 -76.81, 172.85 96.43 1.44 55
4 03/04/2023 12:34:51 76.83, -19.94 83.58 03/04/2023 12:34:13 76.81, -19.91 83.57 2.01 38
5 03/04/2023 13:25:36 -76.82, 147.42 96.46 03/04/2023 13:25:08 -76.83, 147.42 96.44 0.86 28
6 03/04/2023 14:16:23 76.85, -45.40 83.57 03/04/2023 14:16:12 76.83, -45.34 83.55 2.74 11
7 03/04/2023 15:07:08 -76.84, 121.96 96.46 03/04/2023 15:07:07 -76.84, 121.99 96.46 0.89 1
8 03/04/2023 15:57:54 76.83, -70.68 83.52 03/04/2023 15:58:11 76.84, -70.77 83.54 3.11 17
9 03/04/2023 16:48:40 -76.86, 96.50 96.47 03/04/2023 16:49:06 -76.86, 96.56 96.47 1.50 26
10 03/04/2023 17:39:26 76.84, -96.14 83.51 03/04/2023 17:40:10 76.86, -96.20 83.52 2.30 44
11 03/04/2023 18:30:12 -76.88, 71.04 96.47 03/04/2023 18:31:05 -76.87, 71.13 96.49 2.27 53
12 03/04/2023 19:20:58 76.86,-121.60 83.51 03/04/2023 19:22:09 76.87,-121.63 83.50 1.52 71
13 03/04/2023 20:11:49 -77.11, 44.67 96.21 03/04/2023 20:12:59 -77.10, 46.63 96.35 48.56 70



Historial Predications of SNOs between FY3D and NOAA-19
